Location: Bernay
(48.6766°N, 2.9386°E)
Time: 14:43:15
(UTC+00:00)

Cosmos 1741 Rocket - Pass Details

Date: 12 January 2026
Orbit: 758 x 777 km, 74.0° (Epoch: 9 February)

Event Time Altitude Azimuth Distance (km) Brightness Sun altitude
Rises 18:41:18 0° 334° (NNW) 3,242 7.5 -23.2°
Reaches altitude 10° 18:43:42 10° 332° (NNW) 2,309 6.7 -23.6°
Maximum altitude 18:48:53 66° 251° (WSW) 830 4.3 -24.5°
Drops below altitude 10° 18:54:01 10° 170° (S) 2,283 6.4 -25.3°
Sets 18:56:22 0° 168° (SSE) 3,203 7.1 -25.7°
